DW2802 Ogijares ES current weather conditions

sailwx.info

Wind from 056

Air temperature 21.7° C
Dewpoint 8.9° C

Last reported at 2016-Jul-27 02:42 UTC.
Time now 2016-Jul-27 03:50 UTC

Location: N 37°07' W 003°36'.
View on Google Maps.

See reports from other nearby stations

  
Tides and Currents Weather Stations Pressure Air Temp Water Temp Dewpoint Dewpoint Depression Visibility Wind Speed Wind Dir Waves Ship Positions
date/time (UTC)wind fromknots sea level pressurealtimeterstation pressurevisibilityair tempwater tempwave heightnotes
2016-Jul-27 02:42 056 21.7
2016-Jul-27 02:27 040 22.2
2016-Jul-27 02:12 040 22.2
2016-Jul-27 01:57 025 23.3
2016-Jul-27 01:41 024 23.3
2016-Jul-27 01:26 024 23.3
2016-Jul-27 01:12 024 23.3
2016-Jul-27 00:56 024 23.9
2016-Jul-27 00:41 024 24.4
2016-Jul-27 00:26 024 25.0
2016-Jul-27 00:11 146 25.0
2016-Jul-26 23:56 146 25.0
2016-Jul-26 23:41 146 25.0
2016-Jul-26 23:26 146 4 gusting 7 25.0
2016-Jul-26 23:11 134 2 gusting 6 24.4
2016-Jul-26 22:56 091 25.0
2016-Jul-26 22:41 089 25.6
2016-Jul-26 22:26 079 26.7
2016-Jul-26 22:11 076 26.7
2016-Jul-26 21:56 076 26.7
2016-Jul-26 21:41 076 27.8
2016-Jul-26 21:26 076 27.8
2016-Jul-26 21:11 076 28.3
2016-Jul-26 20:56 076 28.9
2016-Jul-26 20:41 075 2 gusting 5 29.4
2016-Jul-26 20:26 133 3 gusting 12 30.0
2016-Jul-26 20:11 157 8 gusting 14 30.0
2016-Jul-26 19:56 149 6 gusting 14 30.0
2016-Jul-26 19:41 142 7 gusting 15 30.0
2016-Jul-26 19:26 168 11 gusting 15 30.0
2016-Jul-26 19:11 154 8 gusting 14 30.0
2016-Jul-26 18:56 167 7 gusting 19 30.6
2016-Jul-26 18:41 160 8 gusting 15 31.1
2016-Jul-26 18:26 160 6 gusting 13 31.7
2016-Jul-26 18:11 155 6 gusting 15 31.7
2016-Jul-26 17:56 160 4 gusting 12 32.2
2016-Jul-26 17:41 165 5 gusting 15 32.2
2016-Jul-26 17:26 158 7 gusting 13 32.8
2016-Jul-26 17:11 147 8 gusting 15 33.3
2016-Jul-26 16:56 140 6 gusting 13 33.3
2016-Jul-26 16:41 165 6 gusting 11 33.9
2016-Jul-26 16:26 190 4 gusting 10 33.9
2016-Jul-26 16:11 171 6 gusting 9 33.9
2016-Jul-26 15:56 188 6 gusting 12 33.9
2016-Jul-26 15:41 190 6 gusting 14 33.9
2016-Jul-26 15:26 188 6 gusting 13 33.9
2016-Jul-26 15:11 156 8 gusting 15 33.9
2016-Jul-26 14:56 200 6 gusting 13 33.9
2016-Jul-26 14:41 185 6 gusting 13 33.9
2016-Jul-26 14:26 221 8 gusting 13 33.9
2016-Jul-26 14:11 176 8 gusting 13 34.4
2016-Jul-26 13:56 164 6 gusting 13 34.4
2016-Jul-26 13:41 169 6 gusting 13 34.4
2016-Jul-26 13:25 192 2 gusting 10 34.4
2016-Jul-26 13:11 153 3 gusting 14 34.4
2016-Jul-26 12:55 192 7 gusting 13 33.9
2016-Jul-26 12:40 186 5 gusting 13 33.9
2016-Jul-26 12:25 183 9 gusting 14 33.3
2016-Jul-26 12:10 163 10 gusting 18 33.3
2016-Jul-26 11:55 216 8 gusting 15 33.3
2016-Jul-26 11:40 165 5 gusting 13 32.8
2016-Jul-26 11:25 194 6 gusting 15 32.8
2016-Jul-26 11:10 209 5 gusting 10 32.2
2016-Jul-26 10:55 213 5 gusting 8 32.2
2016-Jul-26 10:40 048 31.7
2016-Jul-26 10:25 345 0 gusting 4 31.1
2016-Jul-26 10:10 339 31.1
2016-Jul-26 09:56 360 30.6
2016-Jul-26 09:40 005 30.0
2016-Jul-26 09:25 011 29.4
2016-Jul-26 09:10 013 28.9
2016-Jul-26 08:54 019 1 gusting 3 28.9
2016-Jul-26 08:39 029 28.3
2016-Jul-26 08:24 298 27.8
2016-Jul-26 08:09 225 27.8
2016-Jul-26 07:54 224 26.7
2016-Jul-26 07:39 224 26.1
2016-Jul-26 07:24 224 25.0
2016-Jul-26 07:09 225 25.0
2016-Jul-26 06:54 225 24.4
2016-Jul-26 06:39 237 23.3
2016-Jul-26 06:24 237 22.2
2016-Jul-26 06:09 237 21.1
2016-Jul-26 05:54 237 21.1
2016-Jul-26 05:39 259 20.6
2016-Jul-26 05:24 262 20.6
2016-Jul-26 05:09 263 20.6
2016-Jul-26 04:53 265 20.6
2016-Jul-26 04:38 266 21.1
2016-Jul-26 04:23 274 21.1
2016-Jul-26 04:08 284 21.1
2016-Jul-26 03:53 286 21.1
2016-Jul-26 03:38 292 21.7
2016-Jul-26 03:23 292 21.7
2016-Jul-26 03:09 293 21.7
2016-Jul-26 02:53 293 21.7
2016-Jul-26 02:38 293 22.2
2016-Jul-26 02:23 295 22.2
2016-Jul-26 02:08 295 22.2
2016-Jul-26 01:53 295 22.2
2016-Jul-26 01:38 302 22.2
2016-Jul-26 01:23 302 22.8
2016-Jul-26 01:08 302 22.8
2016-Jul-26 00:53 302 23.3
2016-Jul-26 00:38 302 23.3
2016-Jul-26 00:23 303 23.3
2016-Jul-26 00:08 304 23.9
2016-Jul-25 23:53 304 24.4
2016-Jul-25 23:38 304 25.0
2016-Jul-25 23:23 304 25.6
2016-Jul-25 23:08 304 26.1
2016-Jul-25 22:53 304 26.7
2016-Jul-25 22:38 304 0 gusting 4 26.7
2016-Jul-25 22:23 265 26.7
2016-Jul-25 22:08 340 27.2
2016-Jul-25 21:53 340 27.2
2016-Jul-25 21:38 088 27.8
2016-Jul-25 21:22 088 28.3
2016-Jul-25 21:07 121 3 gusting 13 28.3
2016-Jul-25 20:53 113 5 gusting 14 28.3
2016-Jul-25 20:39 147 7 gusting 18 28.3
2016-Jul-25 20:22 156 9 gusting 18 28.3
2016-Jul-25 20:08 150 9 gusting 18 28.9
2016-Jul-25 19:53 180 8 gusting 15 28.9
2016-Jul-25 19:37 160 6 gusting 14 28.9
2016-Jul-25 19:23 138 11 gusting 17 29.4
2016-Jul-25 19:07 165 11 gusting 16 29.4
2016-Jul-25 18:52 160 11 gusting 18 30.0
2016-Jul-25 18:37 173 7 gusting 19 30.0
2016-Jul-25 18:23 149 9 gusting 16 30.6
2016-Jul-25 18:07 139 9 gusting 15 31.1
2016-Jul-25 17:52 193 7 gusting 15 31.7
2016-Jul-25 17:37 180 7 gusting 15 32.2
2016-Jul-25 17:22 178 8 gusting 13 32.8
2016-Jul-25 17:07 170 5 gusting 10 32.8
2016-Jul-25 16:52 171 6 gusting 13 32.8
2016-Jul-25 16:37 146 3 gusting 11 33.3
2016-Jul-25 16:22 175 8 gusting 14 33.3
2016-Jul-25 16:07 208 6 gusting 13 33.3
2016-Jul-25 15:52 178 7 gusting 15 33.3
2016-Jul-25 15:37 142 5 gusting 13 32.8
2016-Jul-25 15:22 144 6 gusting 14 32.8
2016-Jul-25 15:07 186 7 gusting 14 32.8
2016-Jul-25 14:52 184 9 gusting 17 32.8
2016-Jul-25 14:37 179 9 gusting 16 32.2
2016-Jul-25 14:22 204 8 gusting 15 32.8
2016-Jul-25 14:07 180 8 gusting 15 32.8
2016-Jul-25 13:52 186 9 gusting 15 32.8
2016-Jul-25 13:37 190 8 gusting 15 32.8
2016-Jul-25 13:22 192 6 gusting 10 32.2
2016-Jul-25 13:07 213 4 gusting 15 32.8
2016-Jul-25 12:52 216 6 gusting 12 32.8
2016-Jul-25 12:37 167 3 gusting 10 32.8
2016-Jul-25 12:22 157 5 gusting 10 32.2
2016-Jul-25 12:07 240 5 gusting 10 32.2
2016-Jul-25 11:52 044 32.2
2016-Jul-25 11:37 081 32.2
2016-Jul-25 11:22 054 31.7
2016-Jul-25 11:07 078 1 gusting 6 31.1
2016-Jul-25 10:51 327 30.6
2016-Jul-25 10:37 046 3 gusting 7 30.6
2016-Jul-25 10:21 334 1 gusting 5 30.0
2016-Jul-25 10:06 347 29.4
2016-Jul-25 09:51 024 29.4
2016-Jul-25 09:36 360 28.3
2016-Jul-25 09:21 049 27.8
2016-Jul-25 09:06 049 27.2
2016-Jul-25 08:51 054 26.7
2016-Jul-25 08:36 107 26.1
2016-Jul-25 08:21 107 25.6
2016-Jul-25 08:06 108 25.6
2016-Jul-25 07:51 108 25.0
2016-Jul-25 07:36 108 24.4
2016-Jul-25 07:21 108 23.3
2016-Jul-25 07:05 108 22.2
2016-Jul-25 06:50 107 0 gusting 2 22.2
2016-Jul-25 06:35 103 22.8
2016-Jul-25 06:20 103 21.7
2016-Jul-25 06:05 103 20.6
2016-Jul-25 05:50 103 20.0
2016-Jul-25 05:35 107 20.0
2016-Jul-25 05:20 107 19.4
2016-Jul-25 05:05 107 20.0
2016-Jul-25 04:50 107 20.0
2016-Jul-25 04:35 107 20.0
2016-Jul-25 04:20 107 20.6
2016-Jul-25 04:05 107 20.6
2016-Jul-25 03:50 107 20.6
2016-Jul-25 03:35 107 20.6
2016-Jul-25 03:20 107 20.6
2016-Jul-25 03:05 107 20.6